www.pogodaiklimat.ru

Погода и климат >> Архив погоды >> Россия >> Чукотка >> Анадырь


АРХИВ ПОГОДЫ в Анадыре

Время (UTC), дата Ветер
(напр.,м/с)
 
Видим.   Явления Облачность Т
(С)
Тd
(С)
f
(%)
Тe
(С)
Тes
(С)
Комфортность P
(гПа)
Po
(гПа)
Тmin
(С)
Tmax
(С)
R
(мм)
R24
(мм)
S
(см)
12 12.07 В 5
{8}
50 км 3/3 600 м
[Cb cap Ci fib]
+4.8 +2.1 83 0 0 холодно 1016.1 1008.5
15 12.07 В 4
{6}
50 км 9/9 600 м
[Cb cap]
+6.6 +3.5 81 +3 +3 прохладно 1015.9 1008.4
18 12.07 СВ 3
{6}
50 км 10/10 600 м
[Cb cap]
+8.7 +5.0 78 +6 +6 по сезону 1016.5 1009.0 +4.6
21 12.07 ЮВ 5
{9}
50 км 9/9 600 м
[Cb cap]
+11.1 +5.0 66 +9 +9 по сезону 1016.8 1009.3
00 13.07 Ю 9-12
{12}
50 км 4/3 600 м
[Cu med, cong Ac lent Ci fib]
+11.8 +5.1 63 +8 +9 прохладно 1016.5 1009.2
03 13.07 ЮВ 9-11
{13}
50 км 6/4 600 м
[Cu med, cong Ac trans Ci fib]
+11.1 +5.1 66 +7 +8 прохладно 1016.0 1008.5
06 13.07 ЮВ 10-12
{13}
50 км 6/3 600 м
[Cu med, cong Ci]
+10.4 +4.8 68 +6 +6 прохладно 1015.6 1008.1 +12.1
09 13.07 ЮВ 10-12
{13}
50 км 8/8 600 м
[Cb cap]
+9.1 +4.8 74 +4 +4 холодно 1015.7 1008.2
12 13.07 В 6
{13}
50 км 9/9 600 м
[Cb cap]
+8.0 +4.1 76 +4 +4 прохладно 1015.8 1008.3
15 13.07 В 5
{8}
50 км 9/9 600 м
[Cb cap]
+7.5 +4.3 80 +4 +4 прохладно 1015.1 1007.6
18 13.07 Ю 7
{12}
50 км 9/9 600 м
[Cb cap]
+9.0 +4.5 73 +5 +5 по сезону 1014.3 1006.8 +7.5
21 13.07 Ю 9-11
{11}
50 км 8/8 600 м
[Cb cap]
+10.6 +4.8 67 +7 +7 по сезону 1013.9 1006.4
00 14.07 ЮВ 10-13
{13}
50 км 6/6 600 м
[Sc]
+12.1 +6.4 68 +9 +9 по сезону 1012.5 1005.2
03 14.07 ЮВ 11-13
{14}
50 км 3/3 600 м
[Cu med, cong]
+12.9 +7.6 70 +10 +10 по сезону 1010.9 1003.6
06 14.07 ЮВ 10-13
{13}
50 км 3/1 600 м
[Cu hum Ac lent]
+12.2 +8.1 76 +9 +9 по сезону 1010.2 1002.9 +13.0
09 14.07 ЮВ 7
{14}
50 км 3/0
[Ac trans Ci fib]
+10.2 +7.0 81 +7 +7 по сезону 1009.9 1002.5
12 14.07 ЮВ 4
{9}
50 км 8/0
[Ac trans Ci fib]
+9.7 +7.0 83 +7 +7 по сезону 1009.7 1002.3
15 14.07 Ю 7
{9}
50 км 8/5 600 м
[Cb cap Ac trans]
+11.2 +9.4 89 +8 +8 по сезону 1009.0 1001.7
18 14.07 Ю 6
{11}
50 км 8/4 600 м
[Cb cap Ac trans]
+11.4 +8.4 82 +8 +9 по сезону 1008.7 1001.4 +8.4
21 14.07 Ю 5
{7}
50 км 8/0
[Ac trans Ci fib]
+13.6 +10.2 80 +12 +15 тепло 1008.7 1001.4
00 15.07 Ю 3
{6}
50 км 9/1
[Cu hum Ac trans Ci fib]
+18.1 +10.6 62 +18 +23 тепло 1007.9 1000.8
03 15.07 Ю 3
{5}
50 км 9/8 600 м
[Cu Sc Ac trans]
+17.7 +11.1 65 +18 +19 тепло 1007.3 1000.2
06 15.07 З 4
{5}
50 км слабый дождь 10/3 600 м
[Sc As op]
+18.0 +11.0 64 +18 +18 тепло 1007.5 1000.4 +19.7 0.0
09 15.07 З 4
{10}
15 км слабый ливневой дождь 10/10 600 м
[Cb cap]
+14.2 +13.3 94 +13 +13 тепло 1008.7 1001.4
12 15.07 З 9-13
{13}
50 км {ливн. осадки, дождь} 10/10 300 м
[Cb cap]
+13.1 +11.8 92 +10 +10 по сезону 1008.4 1001.1
15 15.07 З 8-10
{14}
50 км 8/8 300 м
[Sc]
+12.9 +11.8 93 +10 +10 по сезону 1008.6 1001.3
18 15.07 СЗ 4
{10}
50 км 9/9 300 м
[Cb cap]
+12.8 +11.7 93 +11 +11 тепло 1010.1 1002.2 +12.3 2
21 15.07 СЗ 11-13
{16}
50 км 5/1 600 м
[Cb cap Ci fib]
+14.9 +8.8 67 +12 +12 тепло 1010.7 1003.4
00 16.07 СЗ 10-12
{16}
50 км 3/1 600 м
[Cu hum Ac lent Ci fib]
+16.2 +6.1 51 +14 +15 тепло 1011.5 1004.2
03 16.07 СЗ 9-11
{15}
50 км 6/3 600 м
[Cu hum Ci]
+17.1 +5.0 45 +16 +16 тепло 1011.2 1004.1
06 16.07 СЗ 2
{11}
50 км 9/9 600 м
[Sc]
+16.5 +6.5 52 +17 +17 тепло 1011.3 1004.2 +17.7
09 16.07 С 1
{4}
50 км 4/3 600 м
[Sc Ac trans Ci fib]
+15.6 +5.6 51 +16 +16 тепло 1011.6 1004.3
12 16.07 ЮВ 3
{4}
50 км 9/8 600 м
[Cb cap Ac trans]
+12.2 +5.8 65 +11 +11 тепло 1010.6 1003.3
15 16.07 ЮВ 4
{6}
50 км 9/9 600 м
[Cb cap]
+12.5 +8.6 77 +11 +11 тепло 1009.9 1002.6
18 16.07 В 4
{6}
15 км слабый ливневой дождь 10/10 600 м
[Cb cap]
+10.7 +8.5 86 +8 +8 по сезону 1009.3 1001.9 +10.7 4
21 16.07 ЮВ 9-12
{14}
15 км слабый ливневой дождь 10/10 600 м
[Cb cap]
+12.4 +10.0 85 +9 +9 по сезону 1008.4 1001.1
00 17.07 ЮВ 4
{12}
50 км {ливн. осадки} 10/10 600 м
[Cb cap]
+13.8 +11.8 88 +12 +12 по сезону 1009.0 1001.7
03 17.07 Ю 2
{5}
50 км 9/9 600 м
[Cb cap]
+15.0 +11.7 81 +15 +16 тепло 1008.8 1001.5
06 17.07 Ю 3
{5}
50 км 9/9 600 м
[Cb cap]
+14.1 +12.3 89 +13 +13 тепло 1008.5 1001.2 +15.4 0.9
09 17.07 ЮВ 4
{7}
50 км 9/9 600 м
[Cb cap]
+14.0 +12.2 89 +12 +12 тепло 1008.0 1000.7
12 17.07 В 2
{5}
50 км в посл. час ливневой дождь 9/8 600 м
[Cb cap Ac trans]
+13.0 +11.3 89 +12 +12 тепло 1006.8 999.5
15 17.07 ЮВ 6
{9}
50 км 9/6 600 м
[Sc Ac trans]
+13.5 +10.6 83 +11 +11 тепло 1004.8 997.5
18 17.07 ЮВ 10-12
{13}
50 км 9/8 600 м
[Cb cap Ac trans]
+13.4 +10.7 84 +10 +10 по сезону 1003.3 996.0 +12.8 0.0
21 17.07 ЮВ 8
{12}
50 км 9/3 600 м
[Sc Ac trans Ci fib]
+14.8 +11.9 83 +13 +13 тепло 1002.4 995.1
00 18.07 ЮВ 6
{10}
50 км 8/6 600 м
[Sc Ci fib]
+17.6 +12.6 72 +17 +18 тепло 1000.8 993.7
03 18.07 З 8-10
{10}
50 км 9/9 600 м
[Cb cap]
+16.7 +12.5 76 +15 +15 тепло 1001.2 994.1
06 18.07 З 5
{10}
20 км слабый ливневой дождь 10/10 600 м
[Cb cap]
+14.3 +11.5 83 +13 +13 тепло 1002.8 995.5 +18.0 0.0
09 18.07 СЗ 7
{10}
20 км {ливн. осадки} 10/10 300 м
[Cb cap]
+14.0 +12.5 91 +12 +12 тепло 1004.2 996.9
12 18.07 СЗ 8-10
{11}
50 км {ливн. осадки} 6/1 600 м
[Sc Ac trans Ci fib]
+13.1 +10.4 84 +10 +10 по сезону 1005.6 998.3
15 18.07 СЗ 7
{10}
50 км 9/0
[Ac trans Cc]
+11.3 +9.5 89 +8 +8 по сезону 1007.4 1000.1
18 18.07 СЗ 3
{9}
50 км 9/0
[Ac trans Ci fib]
+11.5 +8.2 80 +10 +11 по сезону 1008.6 1001.3 +9.7 0.0
21 18.07 СЗ 2
{6}
50 км 6/0
[Ac trans Ci fib]
+14.1 +7.4 64 +14 +20 тепло 1009.2 1001.9
00 19.07 ЮВ 7
{9}
50 км 9/6 600 м
[Sc Ac trans Ci fib]
+15.5 +11.4 77 +14 +15 тепло 1009.6 1002.3
03 19.07 ЮВ 8
{10}
50 км 9/3 600 м
[Cb cap Ac trans Ci fib]
+16.5 +12.1 75 +15 +16 тепло 1008.8 1001.7
06 19.07 ЮВ 7-11
{14}
50 км 9/9 600 м
[Cb cap]
+13.6 +10.5 82 +11 +11 по сезону 1009.9 1002.6 +18.4

 

Местоположение метеостанции Анадырь (Чукотка, Россия): широта 64.78 долгота 177.50 высота над уровнем моря 61 м.

В архиве по умолчанию представлена погода в Анадыре за последнюю неделю. Архивные данные за месяц целиком и за предыдущие месяцы, начиная с января 2011 года, Вы можете получить, выбрав интересующий диапазон дат из раскрывающегося списка и нажав кнопку "Ввод!".


*Определитесь, кто Вы:
робот инопланетянин человек

Внимание! Время в таблицах - всемирное. Для получения местного времени необходимо прибавить поправку, которая в Анадыре равна 12 ч.

Смотрите также архив погоды в соседних городах и на ближайших метеорологических станциях:

Погода в Анадыре АМС (Чукотка, Россия) (7 км)
Погода в Канчалане (Чукотка, Россия) (58 км)
Погода в Танюрере (Чукотка, Россия) (147 км)
Погода в Эньмувееме (Чукотка, Россия) (263 км)
Погода в Маркове (Чукотка, Россия) (337 км)
Погода в Майской (Чукотка, Россия) (457 км)
Погода в Слаутном (Камчатский край, Россия) (504 км)
Погода в Паляваам-Глубокой (Чукотка, Россия) (505 км)
Погода в Илирнее (Чукотка, Россия) (513 км)
Погода в Комсомольской (Чукотка, Россия) (525 км)

Пояснения к столбцам:

Ветер - указаны скорость ветра в м/с - средняя за 10 мин, порывы в срок и между сроками (в фигурных скобках) и направление, откуда дует ветер: С - северный, СВ - северо-восточный, В - восточный, ЮВ - юго-восточный, Ю - южный, ЮЗ - юго-западный, З - западный, СЗ - северо-западный.
Видимость - горизонтальная дальность видимости в метрах или километрах. При видимости от 1 до 10 км при отсутствии осадков обычно наблюдается дымка, при ухудшении видимости до 1 км и менее - туман. В сухую погоду видимость может ухудшаться дымом, пылью или мглою.
Явления - указаны атмосферные явления, наблюдавшиеся в срок или в последний час перед сроком; фигурными скобками обозначены явления, наблюдавшиеся между сроками (за 1-3 часа до срока); квадратными скобками обозначены град или гололедные отложения с указанием их диаметра в мм.
Облачность - указаны через наклонную черту общая и нижняя облачность в баллах и высота нижней границы облаков в метрах; квадратными скобками обозначены формы облаков: Ci - перистые, Cs - перисто-слоистые, Cc - перисто-кучевые, Ac - высококучевые, As - высокослоистые, Sc - слоисто-кучевые, Ns - слоисто-дождевые, Cu - кучевые, Cb - кучево-дождевые. Подробнее классификацию облаков см. в Атласе облаков (PDF).
T - Температура воздуха - температура, измеренная на высоте 2 м над землей.
Td - Температура точки росы - температура, при понижении до которой содержащийся в воздухе водяной пар достигнет насыщения.
f - Относительная влажность воздуха - влажноcть воздуха, измеренная на высоте 2 м над землей.
Te - Эффективная температура - температура, которую ощущает одетый по сезону человек в тени. Характеристика душности погоды. При расчете учитывается влияние влажности воздуха и скорости ветра на теплоощущения человека.
Tes - Эффективная температура на солнце - температура, которую ощущает человек, с поправкой на солнечный нагрев. Характеристика знойности погоды. Зависит от высоты солнца над горизонтом, облачности и скорости ветра. Ночью, в пасмурную погоду, а также при ветре 12 м/с и более поправка равна нулю.
P - Атмосферное давление - приведенное к уровню моря атмосферное давление.
Po - Атмосферное давление - измеренное на уровне метеостанции атмосферное давление.
Tmin - Минимальная температура - минимум температуры воздуха на высоте 2 м над землей.
Tmax - Максимальная температура - максимум температуры воздуха на высоте 2 м над землей.
R - Количество осадков - Количество выпавших осадков за период времени, мм. При наведении курсора мыши на число - период времени, за который выпало указанное количество осадков.
R24 - Количество осадков - Количество выпавших осадков за 24 часа, мм.
S - Снежный покров - Высота снежного покрова, см. При наведении курсора мыши на число - состояние снежного покрова и степень покрытия местности в баллах.